Location: Altmatt
(47.1333°N, 8.7000°E)
Time: 02:58:33
(UTC+00:00)

CREW DRAGON DEMO-1 DEB - Pass Details

Date: 13 July 2020
Orbit: 369 x 372 km, 51.6° (Epoch: 04 August)

Event Time Altitude Azimuth Distance (km) Brightness Sun altitude
Rises 20:15:31 0° 257° (WSW) 2,224 7.2 -8.3°
Reaches altitude 10° 20:17:35 10° 262° (W) 1,374 6.2 -8.6°
Maximum altitude 20:20:37 54° 342° (NNW) 459 3.6 -9.0°
Drops below altitude 10° 20:23:38 10° 61° (ENE) 1,374 5.5 -9.3°
Sets 20:25:42 0° 66° (ENE) 2,224 6.5 -9.5°
